Погода в Карши

Погода в Карши : погода сейчас, прогноз погоды и архив. Всё, что Вы хотите узнать о погоде в Карши!

Хотите узнать прогноз погоды в Карши? Тогда Вам сюда: Погода в Карши

Поиск расширенной информации на нашем сайте:

Полезная информация:

Другие новости

Новости СМИ2

Главная страница сайта

Новости сайта

03.07.2017

Напоминаем, что на нашем специализированном сайте Метеоцентр.Азия вы можете получить высокодетализированные автоматические прогнозы погоды по пунктам России, СНГ и мира в авиационном формате (включающие направление и скорость ветра, видимость, явления погоды, количество и форму облачности, нижнюю и верхнюю границу облачности).

Рекомендуем:

Погода в Карши - сегодня

Время (UTC), дата Ветер
(°,м/с) 
Видим.   Явления Облачность Т
(°С)
Тd
(°С)
f(%) Тe
(°С)
Pmin
(гПа)
dP
(гПа)
Po
(мм)
O2
(г/м3)
Тmin Tmax R s Состояние
почвы
12 20.03.19 220 (ЮЗ) 10 км    8/5 1500 м кучево-дожд., средняя 
[Cb calv|Ac trans]
+14.2 +5 54 +14  1017.3  -0.3  730  279           
15 20.03.19 290 (З) 10 км    3/0 средняя 
[Ac trans]
+9.8 +4.6 70 +10  1019  1.1  731  283  -0.5  +16.1      полностью
покрыта
пылью 
18 20.03.19 300 (СЗ) 10 км    3/0 средняя 
[Ac trans]
+7.5 +4 78 +7  1020.6  731  286    +16.1       
21 20.03.19 100 (В) 10 км    3/0 средняя 
[Ac trans]
+7.5 +4 78 +8  1020.3  -0.2  731  286           
00 21.03.19 тихо ()   10 км    4/0 средняя 
[Ac trans]
+4.8 +3.1 89 +5  1020.6  731  289           
03 21.03.19 060 (СВ) 10 км    5/0 средняя 
[Ac trans]
+7.1 +4.8 85 +8  1021.3  10.1  750  294           
06 21.03.19 130 (ЮВ) 10 км    6/0 средняя 
[Ac trans]
+12.6 +6.1 65 +13  1020.8  0.5  732  281  +4.8         
09 21.03.19 260 (З) 10 км    6/0 средняя 
[Ac trans]
+14.4 +7 61 +15  1020.7  0.2  732  279           
12 21.03.19 070 (В) 10 км    4/3 1500 м кучево-дожд., средняя 
[Cb calv|Ac trans]
+15.6 +6.8 56 +16  1019.1  -1.5  731  278           
15 21.03.19 040 (СВ) 10 км    4/0 средняя 
[Ac trans]
+12 +7.4 73 +12  1019.2  -0.4  731  281    +16.4       
18 21.03.19 330 (СЗ) 10 км    ясно 
+9.5 +7 84 +10  1020.9  1.3  732  284    +16.4       
21 21.03.19 010 (С) 10 км    5/0 средняя 
[Ac trans]
+9.2 +5.5 78 +9  1020.2  -0.9  731  284           
00 22.03.19 050 (СВ) 10 км    8/0 средняя 
[Ac trans]
+8.3 +5.9 85 +8  1019.5  -0.7  731  285           
03 22.03.19 050 (СВ) 10 км  слаб. ливневой дождь  10/6 1500 м кучево-дожд., средняя 
[Cb cap|Ac und]
+9.2 +6.8 85 +9  1019.4  731  284  +8.3         
06 22.03.19 030 (СВ) 10 км  {ливн. осадки}  10/5 1500 м кучево-дожд., средняя 
[Cb calv|Ac und]
+12.4 +7.3 71 +13  1019.1  0.4  731  281  +8.3    0.0     
09 22.03.19 340 (С) 10 км    9/0 средняя, верхняя 
[Ac trans|Ci fib]
+15.7 +6.7 55 +15  1016.7  -1.9  730  277           
12 22.03.19 300 (СЗ) 10 км    6/3 1500 м кучево-дожд., верхняя 
[Cb calv|Ci fib]
+18 +6.1 46 +19  1014.6  -1.8  728  274           
15 22.03.19 010 (С) 10 км    4/0 средняя, верхняя 
[Ac trans|Ci fib]
+15 +6.5 57 +15  1014.2  -0.8  728  277    +18.6       
18 22.03.19 090 (В) 10 км    3/0 средняя 
[Ac trans]
+13 +6.5 65 +13  1015.5  0.9  728  279      0.0     
21 22.03.19 тихо ()   10 км    4/0 средняя 
[Ac trans]
+10.3 +7 80 +10  1016  0.1  728  282           
00 23.03.19 200 (Ю) 4000 м  слаб. ливневой дождь  10/10 1200 м кучево-дожд. 
[Cb cap]
+10 +8.5 90 +9  1016.2  0.2  729  282    -0.6       
03 23.03.19 210 (ЮЗ) 10 км  {ливн. осадки}  10/10 400 м кучево-дожд. 
[Cb calv]
+8.8 +7.3 90 +8  1019.9  3.4  731  284  +8.8         
06 23.03.19 200 (Ю) 10 км  в посл. час ливневой дождь  10/10 300 м кучево-дожд. 
[Cb calv]
+9 +7.3 89 +7  1021.8  1.8  733  284  +8.8    11     
09 23.03.19 190 (Ю) 10 км    10/10 720 м кучево-дожд. 
[Cb calv]
+9.9 +6.5 79 +8  1021.6  733  284           
12 23.03.19 220 (ЮЗ) 10 км    6/6 1500 м кучево-дожд. 
[Cb calv]
+11.6 +4.5 62 +11  1021  -0.5  732  282           
Время (UTC), дата Ветер
(°,м/с) 
Видим.   Явления Облачность Т
(°С)
Тd
(°С)
f(%) Тe
(°С)
Pmin
(гПа)
dP
(гПа)
Po
(мм)
O2
(г/м3)
Тmin Tmax R s Состояние
почвы

Для получения пояснительной информации подведите курсор к названию столбца.

ПОГОДА в Карши - архив

Всё, что Вы хотите узнать о погоде в Карши - удобно и подробно!

Выберите нужную дату (начиная с 1 января 2018* года) и нажмите кнопку "Найти".
Будут отображены архивные сводки погоды по пункту Карши, начиная с указанной даты.


Отображать данные в формате CSV (для использования в таблицах Excel)


Внимание! Наш архив погоды предназначен исключительно для личного некоммерческого использования в познавательных целях. Если Вам необходимы официальные справки о состоянии погоды (для производственных, юридических, коммерческих и т.п. целей), обращайтесь в органы Росгидромета.

*Примечание: данная дата относится к архиву по метеостанциям СССР (Россия, СНГ, Балтия).
Архив по метеостанциям Зарубежной Европы и Азии (кроме Китая) хранится 10 дней, по другим регионам земного шара (Китай, Африка, Америка, Австралия, Океания) - 1 день.

Карши - район местоположения метеостанции


Название, широта, долгота, высота метеостанции:
Карши (аэропорт) 38.8°ш. 65.7°д. 376 м над ур. моря [Узбекистан]

Дополнительная информация

В oтличие oт бoльшинства пoгoдных сайтoв мы публикуем пoдрoбную метеoинфoрмацию в детальнoм прoфессиoнальнoм фoрмате.

Характеристики температуры и влажнoсти вoздуха измеряются на высoте 2 м в тени вдали oт зданий и деревьев.
Скoрoсть ветра измеряется на высoте 10 м (на урoвне рoста челoвека скoрoсть ветра ниже в 1.5-2 раза). Если метеoстанция нахoдится в гoрoде или в лесу, тo скoрoсть ветра занижена на 2-4 м/с пo сравнению с oткрытым местoм. Скoрoсть ветра над акватoриями крупных рек и oзёр, а также на вершинах хoлмoв на 2-5 м/с выше, чем в oбычных услoвиях.
Атмoсфернoе давление в разных тoчках местнoсти мoжет значительнo oтличаться oт давления на метеoстанции, в зависимoсти oт услoвий рельефа (при пoдъёме на 10 м давление пoнижается примернo на 1 мм рт.ст.).